Showing default

TOMORROW-S4, 62386

Orbit data source: Space-Track

TOMORROW-S4, 62386 is a payload satellite owned by Tomorrow.io (US) in LEO that was launched on Sat, 21 Dec 2024 UTC via an FALCON 9 launch vehicle from the Air Force Western Test Range (AFWTR). Payload-class satellites include a variety of spacecraft equipped with specific instruments for various scientific and technological missions. These include communications satellites like Starlink; space stations such as the ISS; scientific satellites like the Hubble; Earth observation satellites from companies like Planet Labs, Umbra, and HawkEye 360; GPS; miniature CubeSats for education and research; and military/defense satellites.

Loading next visibility...
Identifier
62386, 2024-247K
Orbit
LEO
Country
Flag of USUS
Related business
Manufacturer
Blue Canyon
Mission
Operational Commercial Weather
Bus & Motor
CUBESAT 6U, Unknown motor
Mass
12 kg wet, 12 kg dry
Launch date (UTC)
2024-12-21 (1 year ago)
Launch vehicle
FALCON 9
Launch site
Air Force Western Test Range (AFWTR)
Object type
Payload
Rocket body
Debris
Shape & HBR
Box + 2 Pan, 1.0 m
Radar Cross Section
0.138 m², Small (<0.1 m²)

Expand to show TLE details & history
Last TLE update: 15 hours ago

TLE from 15 hours ago
0 TOMORROW-S4
1 62386U 24247K   26093.96545397  .00012741  00000-0  46514-3 0  9990
2 62386  44.9820 339.0456 0003979 325.2417  34.8206 15.28171382 71599
Epoch: 2026-04-03T23:10Z
TLE epoch observation values (Epoch: 2026-04-03T23:10:15.223Z)
Latitude
-0.00001°
Longitude
159.19015°
Altitude
479.035 km
Speed
7.629 km/s
True Right ascension
22h 36m 10s
True Declination
0° 00' 00"
Sunlit
Object was in daylight at epoch
Visualization orbit readout
Latitude
Unknown
Longitude
Unknown
Altitude
Unknown
Speed
Unknown
Apparent Right ascension
Unknown
Apparent Declination
Unknown
Sunlit
N/A
Visualization observer readout
Local Sidereal Time
20:15:35
Azimuth
Unknown
Elevation
Unknown
Doppler factor
Unknown
Orbital elements
Apogee altitude
485.622 km
Perigee altitude
480.162 km
Semi-major axis
6,861.029 km
Eccentricity
0.0004
Inclination
44.982°
RAAN
339.0456°
Arg. of periapsis
325.2417°
True anomaly
34.84665°
Mean anomaly
34.8206°
Eccentric anomaly
34.83362°
Mean motion
3.81909 °/min
Orbital period
94.26 mins
BSTAR
0.00046514
Loading maneuver chart data...
Computing Atmospheric mass density...
Loading historical data...
Loading historical data...
Loading historical data...
Loading historical data...
Loading historical data...
Loading historical data...
Loading historical data...

Documentation

Showing up to 5 results
|